Regional Weather Roundup
Issued by NWS

Home | Current Version | Previous Version | Graphics & Text | Print | Product List | Glossary On
Versions: 1 2 3 4 5 6 7 8 9 10 11 12 13 14 15 16 17 18 19 20 21 22 23 24 25 26 27 28 29 30 31 32 33 34 35 36 37 38 39 40 41 42 43 44 45 46 47 48 49 50
000
ASUS45 KBOU 300107
RWRCO

WEATHER ROUNDUP FOR COLORADO
NATIONAL WEATHER SERVICE DENVER/BOULDER CO
700 PM MDT TUE JUL 29 2014

NOTE: "FAIR" INDICATES FEW OR NO CLOUDS BELOW 12000 FEET WITH NO
SIGNIFICANT WEATHER AND/OR OBSTRUCTIONS TO VISIBILITY.

COZ001>005-013-030-031-300200-
...NORTHWEST COLORADO...

CITY           SKY/WX    TMP DP  RH WIND       PRES   REMARKS
CRAIG          TSTM      58  58 100 MISG      30.27R FOG
HAYDEN         PTSUNNY   64  52  63 E8        30.26F
MEEKER         CLOUDY    67  54  63 SW9       30.25S
MOUNT WERNER   NOT AVBL
STEAMBOAT SPGS CLOUDY    64  53  68 CALM      30.28F
WALDEN         CLOUDY    55  50  82 CALM      30.36F
$$

COZ006>008-011-300200-
...WEST CENTRAL VALLEYS...

CITY           SKY/WX    TMP DP  RH WIND       PRES   REMARKS
GRAND JUNCTION CLOUDY    74  52  46 W15G24    30.15R
MONTROSE       CLOUDY    71  60  68 N3        30.23F THUNDER
EAGLE          NOT AVBL
RIFLE          CLOUDY    69  56  62 NW5       30.19F
DELTA          RAIN      70  62  77 CALM      30.18F
NUCLA          LGT RAIN  64  59  82 E6        30.29F
$$

COZ017>023-064>068-300200-
...SOUTHWEST COLORADO...

CITY           SKY/WX    TMP DP  RH WIND       PRES   REMARKS
DURANGO        PTSUNNY   75  47  36 N13       30.23F
CORTEZ         MOSUNNY   76  52  43 NE10      30.22F
PAGOSA SPRINGS PTSUNNY   70  51  49 E5        30.32R
TELLURIDE      LGT RAIN  57  52  82 W12       30.48R
WOLF CREEK PAS NOT AVBL
$$

COZ009-010-012-014-032>034-037-058>063-300200-
...CENTRAL COLORADO...

CITY           SKY/WX    TMP DP  RH WIND       PRES   REMARKS
ASPEN          PTSUNNY   64  52  64 CALM      30.33F
BUENA VISTA    PTSUNNY   68  47  46 NW10      30.32R THUNDER
COPPER MTN     CLOUDY    52  45  76 W14G23    30.61F THUNDER
BERTHOUD PASS  HAZE      41  28  60 N8G16     30.65S THUNDER VSB<1/4
COTTONWOOD PAS PTSUNNY   63  41  45 W13G20    30.46R
GUNNISON       PTSUNNY   66  46  48 N3        30.35S
KREMMLING      CLOUDY    63  50  63 CALM      30.32F
LEADVILLE      LGT RAIN  54  46  74 W8        30.45F
MONARCH PASS   CLOUDY    50  45  81 W18G29    30.72R THUNDER
SALIDA         CLOUDY    68  55  64 CALM      30.36R
SUNLIGHT       CLOUDY    52  46  82 CALM      30.55F
WILKERSON PASS TSTM      48  45  87 N6        30.58R
$$

COZ069>075-300200-
...SAN LUIS VALLEY/SANGRE DE CRISTO MOUNTAINS...

CITY           SKY/WX    TMP DP  RH WIND       PRES   REMARKS
ALAMOSA        LGT RAIN  62  54  74 NW8       30.32R
LA VETA PASS   PTSUNNY   54  48  82 SW8       30.47F
SAGUACHE       CLOUDY    59  54  82 N7        30.35F THUNDER
$$

COZ035-036-038>040-300200-
...NORTHERN COLORADO FRONT RANGE...

CITY           SKY/WX    TMP DP  RH WIND       PRES   REMARKS
DENVER INTL AP CLOUDY    63  60  90 N8        30.23S
DMNS CITY PARK   N/A     63  60  90 N5G10     30.23S
AURORA         LGT RAIN  61  61  97 E2        30.25R
FRONT RANGE AP NOT AVBL
ERIE MUNI ARPT CLOUDY    64  61  91 N5        30.22S
BOULDER MUN AP CLOUDY    64  61  88 N3        30.22F
CENTENNIAL     CLOUDY    61  57  87 E8        30.25R
BROOMFIELD     LGT RAIN  63  59  88 N9        30.25F
FORT COLLINS   CLOUDY    63  61  94 N10       30.23F
LONGMONT       CLOUDY    67  60  76 N3        30.23F
$$

COZ041-046-047-076>085-087-088-300200-
...PIKES PEAK/PALMER DIVIDE AND SOUTHERN FOOTHILLS...

CITY           SKY/WX    TMP DP  RH WIND       PRES   REMARKS
COLO. SPRINGS  TSTM      63  59  87 NE10      30.24R
A. F. ACADEMY  LGT RAIN  63  61  94 NE7       30.25S
ELLICOTT       LGT RAIN  61  59  93 E14       30.22F
FALCON         TSTM      59  57  95 NE10      30.30R
FORT CARSON    TSTM      63  61  93 NE7       30.20F
LIMON          LGT RAIN  61  60  97 SE8       30.20S
MONUMENT HILL  TSTM      55  54  94 E9        30.28F
TRINIDAD       CLOUDY    72  58  61 W9        30.15F
$$

COZ042>045-048>051-090-091-300200-
...NORTHEAST COLORADO...

CITY           SKY/WX    TMP DP  RH WIND       PRES   REMARKS
GREELEY ARPT   NOT AVBL
AKRON          LGT RAIN  63  62  97 N20G28    30.17R
BURLINGTON     LGT RAIN  71  64  78 S14       30.12S
WRAY             N/A     66  62  86 S29G38    30.12S VSB 1
STERLING       TSTM      66  64  94 W14       30.16R
HOLYOKE        CLOUDY    79  61  53 E16G22    30.13R
FORT MORGAN    CLOUDY    63  60  91 N14G21    30.21R VSB 1
$$

COZ086-089-092>099-300200-
...SOUTHEAST COLORADO...

CITY           SKY/WX    TMP DP  RH WIND       PRES   REMARKS
PUEBLO         PTSUNNY   71  61  70 NE16      30.10R
LA JUNTA       LGT RAIN  70  64  81 NE12G30   30.07R
LAMAR          CLOUDY    78  60  53 S15G24    30.04R
SPRINGFIELD      N/A     73  61  65 SE8       30.11S
$$



USA.gov is the U.S. government's official web portal to all federal, state and local government web resources and services.